Regional Weather Roundup
Issued by NWS

Home | Current Version | Previous Version | Text Only | Print | Product List | Glossary Off
Versions: 1 2 3 4 5 6 7 8 9 10 11 12 13 14 15 16 17 18 19 20 21 22 23 24 25 26 27 28 29 30 31 32 33 34 35 36 37 38 39 40 41 42 43 44 45 46 47 48

000
ASUS45 KSLC 310610
RWRUT

UTAH REGIONAL WEATHER ROUNDUP
NATIONAL WEATHER SERVICE SALT LAKE CITY UT
1200 AM MDT MON AUG 31 2015

UTZ001>011-023>025-310700-

NORTHERN UTAH

CITY           SKY/WX    TMP DP  RH WIND       PRES   REMARKS
BRIGHAM CITY   CLEAR     70  35  26 S3        29.99R
HILL AFB       PTCLDY    68  45  43 SE8       30.00R
LOGAN          CLEAR     62  40  44 CALM      30.03R
OGDEN          CLEAR     66  45  46 NW7       29.98R
PROVO AIRPORT  CLOUDY    66  50  55 CALM      29.99S
SALT LAKE CITY MOCLDY    73  47  39 NW8       29.97R
VERNAL         CLOUDY    67  51  56 SE7       30.07R
WENDOVER       CLEAR     73  28  19 NE16      30.01R
HEBER CITY     PTCLDY    59  48  67 CALM      30.08R
WEST JORDAN    PTCLDY    72  43  35 W13       30.01R

$$

UTZ012>022-026-027-310700-

SOUTHERN/CENTRAL UTAH

CITY           SKY/WX    TMP DP  RH WIND       PRES   REMARKS
BLANDING       CLOUDY    63  53  69 CALM      30.23S
BRYCE CANYON   PTCLDY    51  48  89 CALM      30.29S
CEDAR CITY     PTCLDY    68  41  37 SW3       30.09R
DELTA          PTCLDY    70  36  28 S8        29.99R
HANKSVILLE     MOCLDY    73  50  43 NE9       30.04R
MILFORD        CLEAR     70  38  31 S14       30.00S
MOAB/CYNLANDS  CLOUDY    66  59  78 E9        30.05R
PRICE          PTCLDY    62  49  62 E8        30.12R
ST GEORGE      PTCLDY    82  55  39 E23       29.92R
KANAB          PTCLDY    64  61  88 N12       30.16S

$$

REGIONAL REPORTS     COLORADO/ARIZONA

CITY           SKY/WX    TMP DP  RH WIND       PRES   REMARKS
CRAIG, CO      CLOUDY    63  48  58 S29G37    30.15S
GRAND JUNCTION LGT RAIN  62  60  93 E14       30.15F
RIFLE          LGT RAIN  61  58  90 S7        30.25S
MONTROSE       MOCLDY    61  58  90 CALM      30.22R
CORTEZ         CLOUDY    62  54  74 CALM      30.16F
PAGE, AZ       MOCLDY    71  60  68 S7        30.07S
GRAND CANYON     N/A    N/A N/A N/A MISG      30.25R
KINGMAN        PTCLDY    79  44  28 SE10      29.94S
FLAGSTAFF      MOCLDY    56  55  97 E5        30.29R

$$

REGIONAL REPORTS    NEVADA/IDAHO/WYOMING

CITY           SKY/WX    TMP DP  RH WIND       PRES   REMARKS
LAS VEGAS, NV  PTCLDY    90  40  17 SW3       29.76R
ELY            MOCLDY    63  27  25 MISG      30.12R
ELKO           CLEAR     56  27  32 S5        30.09R
POCATELLO, ID  CLEAR     57  33  40 SW9       30.05R
BURLEY         CLEAR     53  41  63 SW3       30.03R
EVANSTON, WY   CLEAR     56  45  66 S8        30.17R
ROCK SPRINGS   CLOUDY    55  51  86 SE12      30.16F
KEMMERER       PTCLDY    55  43  62 S8        30.17F

$$


USA.gov is the U.S. government's official web portal to all federal, state and local government web resources and services.